Volver al catálogo

STARLINK-35113

ActivoComunicacionesVLEO
NORAD 65697·PAYLOAD·🇺🇸 United States

Lanzado Sep 21, 2025 desde Cape Canaveral Space Force Station

Loading…

Próximos Pases (próximas 24 horas)

TLE

ActualizadoSource: CelesTrak SupGP

Época: Sep 14, 2026, 14:44 UTC

1 65697C 25212X   26257.61437500  .00058006  00000+0  17145-2 0  2578
2 65697  53.1579 183.5122 0001130  83.7772 286.6090 15.34348076    19

Sigue STARLINK-35113 en tiempo real con AllMySat

Download on the App Store